| time (UTC) | temp F | wind direction | speed MPH | gust MPH | rain 1hr in | rain 24hr in | rain mn in | humidity % | barometer mb |
| 20260506081556 | 52 | 38 | 0.0 | 0.0 | 0.00 | 0.00 | 0.00 | 92 | 1018.4 |
| 20260506073048 | 54 | 38 | 0.0 | 2.0 | 0.00 | 0.00 | 0.00 | 92 | 1018.3 |
| 20260506071547 | 54 | 47 | 1.0 | 5.0 | 0.00 | 0.00 | 0.00 | 92 | 1018.3 |
| 20260506061539 | 55 | 42 | 4.0 | 11.0 | 0.00 | 0.00 | 0.00 | 91 | 1017.7 |
| 20260506044532 | 55 | 87 | 2.0 | 5.0 | 0.00 | 0.00 | 0.00 | 90 | 1017.3 |
| 20260506043030 | 55 | 66 | 2.0 | 6.0 | 0.00 | 0.00 | 0.00 | 90 | 1017.1 |
| 20260506041528 | 55 | 65 | 2.0 | 6.0 | 0.00 | 0.00 | 0.00 | 90 | 1017.0 |
| 20260506040027 | 55 | 63 | 3.0 | 8.0 | 0.00 | 0.00 | 0.00 | 90 | 1016.8 |
| 20260506034526 | 56 | 63 | 2.0 | 7.0 | 0.00 | 0.00 | 0.00 | 89 | 1016.7 |
| 20260506033025 | 56 | 59 | 3.0 | 7.0 | 0.00 | 0.00 | 0.00 | 88 | 1016.6 |
| 20260506031525 | 56 | 66 | 3.0 | 10.0 | 0.00 | 0.00 | 0.00 | 87 | 1016.3 |
| 20260506030030 | 56 | 89 | 3.0 | 9.0 | 0.00 | 0.00 | 0.00 | 86 | 1016.1 |
| 20260506024539 | 57 | 106 | 6.0 | 11.0 | 0.00 | 0.00 | 0.00 | 85 | 1016.0 |
| 20260506023022 | 58 | 85 | 7.0 | 12.0 | 0.00 | 0.00 | 0.00 | 84 | 1015.8 |
| 20260506021522 | 58 | 87 | 5.0 | 12.0 | 0.00 | 0.00 | 0.00 | 84 | 1015.7 |
| 20260506020021 | 59 | 93 | 5.0 | 16.0 | 0.00 | 0.00 | 0.00 | 83 | 1015.7 |
| 20260506014523 | 59 | 110 | 10.0 | 13.0 | 0.00 | 0.00 | 0.00 | 82 | 1015.8 |
| 20260506013020 | 59 | 104 | 8.0 | 13.0 | 0.00 | 0.00 | 0.00 | 81 | 1015.8 |
| 20260506011520 | 59 | 81 | 7.0 | 13.0 | 0.00 | 0.00 | 0.00 | 79 | 1015.7 |
| 20260506010020 | 59 | 91 | 7.0 | 14.0 | 0.00 | 0.00 | 0.00 | 79 | 1015.7 |
| 20260506004518 | 59 | 99 | 7.0 | 15.0 | 0.00 | 0.00 | 0.00 | 78 | 1015.7 |
| 20260506003019 | 60 | 121 | 8.0 | 15.0 | 0.00 | 0.00 | 0.00 | 77 | 1015.7 |
| 20260506001519 | 60 | 84 | 8.0 | 15.0 | 0.00 | 0.00 | 0.00 | 76 | 1015.6 |
| 20260506000017 | 61 | 89 | 8.0 | 11.0 | 0.00 | 0.00 | 0.00 | 77 | 1015.6 |
| 20260505234526 | 61 | 96 | 10.0 | 16.0 | 0.00 | 0.00 | 0.00 | 76 | 1015.6 |
| 20260505233020 | 62 | 87 | 7.0 | 15.0 | 0.00 | 0.00 | 0.00 | 77 | 1015.7 |
| 20260505231516 | 61 | 109 | 9.0 | 17.0 | 0.00 | 0.00 | 0.00 | 77 | 1015.6 |
| 20260505230032 | 61 | 92 | 8.0 | 18.0 | 0.00 | 0.00 | 0.00 | 78 | 1015.7 |
| 20260505224515 | 62 | 101 | 8.0 | 18.0 | 0.00 | 0.00 | 0.00 | 75 | 1015.8 |
| 20260505223014 | 61 | 108 | 6.0 | 18.0 | 0.00 | 0.00 | 0.00 | 77 | 1015.9 |
| 20260505221513 | 61 | 88 | 10.0 | 16.0 | 0.00 | 0.00 | 0.00 | 75 | 1016.0 |
| 20260505220012 | 61 | 61 | 7.0 | 15.0 | 0.00 | 0.00 | 0.00 | 76 | 1016.1 |
| 20260505214512 | 61 | 65 | 10.0 | 17.0 | 0.00 | 0.00 | 0.00 | 75 | 1016.3 |
| 20260505213012 | 61 | 66 | 9.0 | 16.0 | 0.00 | 0.00 | 0.00 | 76 | 1016.4 |
| 20260505211513 | 61 | 92 | 6.0 | 16.0 | 0.00 | 0.00 | 0.00 | 76 | 1016.5 |
| 20260505210013 | 60 | 109 | 9.0 | 16.0 | 0.00 | 0.00 | 0.00 | 76 | 1016.5 |
| 20260505204508 | 60 | 126 | 10.0 | 19.0 | 0.00 | 0.00 | 0.00 | 75 | 1016.5 |
| 20260505203010 | 60 | 96 | 9.0 | 17.0 | 0.00 | 0.00 | 0.00 | 74 | 1016.5 |
| 20260505201512 | 61 | 111 | 6.0 | 14.0 | 0.00 | 0.00 | 0.00 | 74 | 1016.4 |
| 20260505200007 | 60 | 69 | 8.0 | 15.0 | 0.00 | 0.00 | 0.00 | 73 | 1016.5 |
| 20260505194506 | 59 | 101 | 9.0 | 14.0 | 0.00 | 0.00 | 0.00 | 74 | 1016.6 |
| 20260505193005 | 59 | 82 | 6.0 | 15.0 | 0.00 | 0.00 | 0.00 | 74 | 1016.5 |
| 20260505191507 | 60 | 103 | 8.0 | 14.0 | 0.00 | 0.00 | 0.00 | 73 | 1016.4 |
| 20260505190007 | 61 | 90 | 9.0 | 15.0 | 0.00 | 0.00 | 0.00 | 70 | 1016.4 |
| 20260505184502 | 61 | 51 | 6.0 | 17.0 | 0.00 | 0.00 | 0.00 | 71 | 1016.3 |
| 20260505183058 | 60 | 110 | 6.0 | 12.0 | 0.00 | 0.00 | 0.00 | 74 | 1016.3 |
| 20260505181557 | 59 | 94 | 6.0 | 14.0 | 0.00 | 0.00 | 0.00 | 72 | 1016.2 |
| 20260505180104 | 59 | 67 | 7.0 | 12.0 | 0.00 | 0.00 | 0.00 | 73 | 1016.0 |
| 20260505174609 | 59 | 78 | 5.0 | 15.0 | 0.00 | 0.00 | 0.00 | 70 | 1015.8 |
| 20260505173052 | 59 | 111 | 7.0 | 14.0 | 0.00 | 0.00 | 0.00 | 72 | 1015.8 |
| 20260505171552 | 59 | 84 | 6.0 | 12.0 | 0.00 | 0.00 | 0.00 | 76 | 1015.8 |
| 20260505170048 | 59 | 51 | 4.0 | 10.0 | 0.00 | 0.00 | 0.00 | 77 | 1015.8 |
| 20260505164550 | 58 | 65 | 4.0 | 10.0 | 0.00 | 0.00 | 0.00 | 77 | 1015.8 |
| 20260505163046 | 58 | 119 | 5.0 | 9.0 | 0.00 | 0.00 | 0.00 | 76 | 1015.8 |
| 20260505161550 | 58 | 115 | 5.0 | 9.0 | 0.00 | 0.00 | 0.00 | 79 | 1015.7 |
| 20260505153035 | 56 | 130 | 4.0 | 9.0 | 0.00 | 0.00 | 0.00 | 86 | 1015.3 |
| 20260505151531 | 55 | 57 | 0.0 | 4.0 | 0.00 | 0.00 | 0.00 | 91 | 1015.2 |
| 20260505124520 | 47 | 196 | 0.0 | 0.0 | 0.00 | 0.00 | 0.00 | 94 | 1014.7 |
| 20260505123028 | 47 | 87 | 0.0 | 0.0 | 0.00 | 0.00 | 0.00 | 94 | 1014.7 |
| 20260505121518 | 47 | 87 | 0.0 | 0.0 | 0.00 | 0.00 | 0.00 | 94 | 1014.8 |
| 20260505120024 | 48 | 87 | 0.0 | 0.0 | 0.00 | 0.00 | 0.00 | 94 | 1014.8 |
| 20260505114517 | 48 | 87 | 0.0 | 0.0 | 0.00 | 0.00 | 0.00 | 94 | 1014.7 |
| 20260505113017 | 48 | 87 | 0.0 | 0.0 | 0.00 | 0.00 | 0.00 | 94 | 1014.8 |
| 20260505111520 | 48 | 87 | 0.0 | 0.0 | 0.00 | 0.00 | 0.00 | 94 | 1014.8 |
| 20260505101527 | 48 | 87 | 0.0 | 0.0 | 0.00 | 0.00 | 0.00 | 92 | 1014.6 |
| 20260505100026 | 48 | 87 | 0.0 | 0.0 | 0.00 | 0.00 | 0.00 | 92 | 1014.7 |
| 20260505094507 | 49 | 87 | 0.0 | 0.0 | 0.00 | 0.00 | 0.00 | 92 | 1014.8 |
| 20260505093005 | 49 | 87 | 0.0 | 0.0 | 0.00 | 0.00 | 0.00 | 92 | 1015.0 |
| 20260505091502 | 50 | 87 | 0.0 | 0.0 | 0.00 | 0.00 | 0.00 | 91 | 1015.0 |
| 20260505090001 | 50 | 87 | 0.0 | 0.0 | 0.00 | 0.00 | 0.00 | 91 | 1015.3 |
| 20260505084606 | 50 | 87 | 0.0 | 0.0 | 0.00 | 0.00 | 0.00 | 91 | 1015.3 |
| 20260505083102 | 50 | 87 | 0.0 | 0.0 | 0.00 | 0.00 | 0.00 | 90 | 1015.4 |